TIME,DELAY(SENSOR),PRES,T(CTD),SAL,OXYGEN,RAWTEMP,T(OPTODE),TCPHASE,FLUOR,BETA(BETA700),BETA(BETA412),BETA(BETA440),CDOM,C(CSC),ED(ED411.90),ED(ED443.80),ED(ED489.40),ED(ED554.70),LU(LU412.20),LU(LU443.80),LU(LU489.40),LU(LU555.00),COMP,TILTX,TILTX(TILTY),CHECK
1350659933,5801,496.5599975585937500,17.2432994842529300,36.4164009094238300,227.2494964599609400,194.7283020019531200,17.2420406341552730,32.2274284362793000,50,93,57,78,54,572,2147484891,2147771602,2147558116,2147798180,2147315913,2147477430,2147710107,2148246747,1354,7,12,42203
1350660050,5801,485.5400085449219000,17.3117008209228500,36.4286003112793000,228.1222991943359400,192.4127960205078000,17.3124809265136720,32.1519203186035160,50,94,55,79,53,574,2147486710,2147769929,2147559936,2147795200,2147314441,2147478043,2147711442,2148244214,848,7,12,63600
1350660177,5801,473.6799926757812500,17.4206008911132800,36.4486999511718750,228.8374023437500000,188.6063995361328000,17.4282894134521500,32.0638389587402340,50,95,56,79,52,576,2147485595,2147770221,2147557504,2147792960,2147315008,2147480548,2147710683,2148246692,452,7,13,31576
1350660294,5802,462.7500000000000000,17.4983997344970700,36.4656982421875000,231.0653076171875000,186.3898925781250000,17.4957294464111330,31.9228706359863280,49,94,55,79,52,581,2147483812,2147769545,2147559524,2147794459,2147316123,2147479744,2147707766,2148246107,863,7,13,12326
1350660409,5802,452.0400085449219000,17.5608005523681640,36.4748001098632800,230.6479949951172000,184.2657012939453000,17.5603694915771500,31.9145698547363280,49,95,55,78,53,581,2147482633,2147768365,2147559670,2147795556,2147314477,2147481133,2147709504,2148246957,265,7,13,15971
1350660524,5806,441.5100097656250000,17.6378993988037100,36.4898986816406250,232.2680053710937500,181.5529022216797000,17.6429290771484380,31.7980003356933600,50,94,55,79,53,581,2147489152,2147766628,2147560320,2147792621,2147317842,2147485056,2147710390,2148248768,362,7,12,28465
1350660653,5803,429.8399963378906000,17.7348995208740230,36.5091018676757800,233.8650970458984400,178.7077026367187500,17.7295303344726560,31.6815395355224600,50,93,56,80,53,586,2147490139,2147766500,2147558427,2147793051,2147310619,2147478848,2147704192,2148245330,246,7,13,27563
1350660768,5801,419.5299987792969000,17.7982006072998050,36.5208015441894500,234.8159942626953000,176.4528045654297000,17.7981700897216800,31.6051292419433600,49,94,55,78,50,586,2147486793,2147769435,2147560301,2147792950,2147317586,2147479332,2147709129,2148244324,3217,7,12,59089
1350660895,5803,408.5000000000000000,17.8455009460449220,36.5287017822265600,235.4913940429687500,175.0393066406250000,17.8411998748779300,31.5533905029296880,49,94,54,80,52,591,2147484690,2147767945,2147558354,2147792009,2147320466,2147483245,2147706230,2148241051,2884,6,13,58782
1350661024,5804,397.4899902343750000,17.9095001220703120,36.5399017333984400,235.9853973388672000,172.8524017333984400,17.9077796936035160,31.5000801086425780,49,94,54,78,53,591,2147484891,2147770249,2147556882,2147792548,2147314541,2147481206,2147702281,2148243017,2923,7,13,6417
1350661151,5803,386.8299865722656000,17.9486999511718750,36.5448989868164060,236.1316986083984400,171.6667022705078000,17.9438800811767580,31.4771995544433600,50,94,55,79,51,592,2147486491,2147772032,2147557897,2147792841,2147317366,2147480219,2147705417,2148244370,3492,7,13,19915
1350661292,5802,375.1199951171875000,17.9874992370605470,36.5497016906738300,235.6589050292968800,170.2666015625000000,17.9865093231201170,31.4809398651123050,50,94,54,78,53,596,2147488649,2147767853,2147557165,2147791926,2147314678,2147480457,2147705792,2148242806,2824,7,13,4804
1350661419,5804,364.6000061035156000,18.0797004699707030,36.5633010864257800,235.4853057861328000,167.2568969726562500,18.0781707763671880,31.4490108489990230,50,95,54,79,51,600,2147489517,2147766637,2147559442,2147791433,2147317348,2147480758,2147707968,2148246692,2513,7,12,59473
1350661560,5804,353.0000000000000000,18.1243991851806640,36.5668983459472660,234.8336944580078000,165.8334045410156200,18.1215190887451170,31.4609794616699220,49,94,55,79,53,597,2147489664,2147764763,2147559625,2147790683,2147310089,2147479652,2147709001,2148241718,2529,7,12,39245
1350661687,5801,342.4899902343750000,18.1418991088867200,36.5684013366699200,234.6206970214843800,165.2442932128906200,18.1394596099853500,31.4634895324707030,50,95,53,80,52,601,2147487542,2147768274,2147561901,2147794706,2147313417,2147485440,2147706569,2148242843,2468,7,12,4299
1350661826,5803,330.9800109863281000,18.1961994171142580,36.5751991271972660,234.2353973388672000,163.5075988769531200,18.1923599243164060,31.4585304260253900,50,96,54,80,53,604,2147490404,2147767542,2147560438,2147792502,2147311661,2147479707,2147709366,2148244928,2322,7,12,47610
1350661955,5804,320.5499877929687500,18.2525997161865230,36.5807991027832000,233.7689056396484400,161.6130981445312500,18.2500705718994140,31.4553794860839840,50,95,53,80,53,604,2147489609,2147766427,2147560832,2147790244,2147319067,2147481581,2147707200,2148241252,2625,7,13,27249
1350662094,5805,309.6700134277344000,18.3253993988037100,36.5877990722656250,232.8441925048828000,159.2342071533203000,18.3225498199462900,31.4682102203369140,50,97,53,80,53,607,2147487177,2147764205,2147560036,2147790528,2147314578,2147483245,2147706861,2148240429,2246,7,12,20484
1350662253,5801,296.2000122070312500,18.4262008666992200,36.5987014770507800,231.3551940917968800,155.8312988281250000,18.4262504577636720,31.4952907562255860,50,94,53,80,52,612,2147491565,2147762624,2147565449,2147790427,2147316562,2147483730,2147708297,2148240402,1529,7,13,20442
1350662368,5803,284.8999938964844000,18.5021991729736330,36.6045989990234400,229.8121948242187500,153.1430969238281200,18.5081806182861330,31.5347995758056640,49,95,53,79,52,611,2147489508,2147767926,2147574528,2147792411,2147313828,2147483638,2147712850,2148240960,1621,7,12,7142
1350662483,5802,273.8299865722656000,18.5942993164062500,36.6078987121582000,229.0475006103515600,150.3511047363281200,18.5932903289794920,31.5349407196044920,50,94,53,79,52,612,2147491044,2147773184,2147590153,2147790966,2147313974,2147485805,2147723702,2148241005,1471,7,12,18993
1350662600,5802,262.6799926757812500,18.7001991271972660,36.6111984252929700,227.7431030273437500,146.9588012695312500,18.6967105865478500,31.5543003082275400,50,94,53,80,53,611,2147494235,2147773229,2147593810,2147792448,2147311241,2147485650,2147722752,2148243821,1534,7,12,15795
1350662715,5804,251.5800018310547000,18.7956008911132800,36.6076011657714840,228.3822937011718800,143.9160003662109400,18.7895107269287100,31.4815807342529300,50,92,54,78,52,614,2147493037,2147777664,2147617837,2147791442,2147306514,2147490944,2147737088,2148241526,784,7,12,39192
1350662830,5802,240.3300018310547000,18.9265003204345700,36.6097984313964840,229.7413024902343800,139.6611022949218800,18.9193000793457030,31.3578205108642580,49,93,53,79,53,610,2147492114,2147788534,2147632374,2147788562,2147312667,2147493778,2147745097,2148242249,1156,7,12,57897
1350662947,5803,228.8399963378906200,19.0506992340087900,36.6081008911132800,233.2924957275390600,135.5039978027343800,19.0461502075195300,31.1300697326660160,50,94,53,79,52,619,2147490962,2147797933,2147667200,2147789028,2147308470,2147500562,2147765696,2148245275,1476,7,12,52071
1350663062,5806,217.5500030517578000,19.2455997467041000,36.6363983154296900,228.4342041015625000,128.6838073730468800,19.2543506622314450,31.2758903503417970,50,95,53,79,53,618,2147494162,2147804470,2147689965,2147790573,2147307318,2147506715,2147777627,2148243821,1813,7,12,49575
1350663177,5805,206.6600036621093800,19.2987003326416000,36.5970001220703100,238.2774047851562500,127.2749023437500000,19.2973804473876950,30.7850494384765620,49,94,53,79,52,617,2147498038,2147811245,2147702198,2147790006,2147311387,2147513856,2147786532,2148242532,2898,7,12,8371
1350663288,5804,197.0700073242187500,19.3187999725341800,36.5923004150390600,241.7933044433593800,126.4489974975586000,19.3225994110107420,30.6108894348144530,50,96,52,79,51,618,2147502016,2147817234,2147719926,2147785362,2147307904,2147519597,2147793499,2148243849,2569,7,12,19431
1350663343,5804,192.6600036621093800,19.3941001892089840,36.5966987609863300,241.1495971679687500,124.1035003662109400,19.3942394256591800,30.6099090576171880,50,95,53,78,53,615,2147501229,2147840548,2147782171,2147787977,2147311680,2147531072,2147827602,2148247332,2516,7,12,49204
1350663398,5803,188.3999938964843800,19.4239006042480470,36.6036987304687500,239.5753021240234400,123.1988983154296900,19.4218807220459000,30.6709098815917970,49,96,54,80,51,620,2147507620,2147880722,2147899995,2147785554,2147312978,2147558281,2147895744,2148248338,2614,7,12,39106
1350663453,5805,184.2200012207031200,19.4764003753662100,36.6120986938476560,237.7113037109375000,121.6999969482421900,19.4676704406738280,30.7382297515869140,50,96,53,80,52,617,2147510061,2147895954,2147929060,2147787693,2147314230,2147567853,2147913033,2148247241,2442,7,12,37994
1350663508,5805,180.1900024414062500,19.4540004730224600,36.5942001342773440,241.0787048339843800,121.3701019287109400,19.4777507781982420,30.5775299072265620,50,96,54,79,52,622,2147509174,2147856237,2147808667,2147785481,2147314642,2147543936,2147845568,2148245101,2195,7,12,42511
1350663586,5802,175.1199951171875000,19.5687999725341800,36.6099014282226560,239.1696014404297000,118.6045989990234400,19.5622692108154300,30.6294307708740230,50,95,52,79,52,615,2147527734,2147981366,2148186194,2147787885,2147318528,2147620068,2148057755,2148258240,2205,7,12,45635
1350663653,5805,171.5599975585937500,19.5888004302978500,36.6088981628418000,239.6884002685547000,117.8235015869140600,19.5861396789550780,30.5953807830810550,51,95,54,79,52,619,2147530532,2147985910,2148160512,2147789814,2147323766,2147625846,2148039798,2148257645,2259,7,12,34996
1350663732,5801,167.4499969482422000,19.6783008575439450,36.6184997558593750,239.5794067382812500,115.0176010131836000,19.6719207763671880,30.5637397766113280,50,96,54,79,52,622,2147529947,2147958080,2148071524,2147791076,2147321545,2147606235,2147994340,2148255250,2425,7,12,56018
1350663811,5804,163.3899993896484400,19.7616996765136720,36.6260986328125000,238.6168975830078000,112.2959976196289000,19.7551307678222660,30.5727405548095700,51,95,55,80,52,619,2147538596,2148000868,2148178962,2147790912,2147327616,2147627072,2148044781,2148258203,2167,7,12,41759
1350663892,5805,159.2299957275390600,19.8026008605957030,36.6302986145019500,241.0764007568359400,110.3220977783203100,19.8155097961425780,30.4333992004394530,51,96,52,79,51,620,2147547739,2148071954,2148348772,2147788297,2147330130,2147673901,2148139044,2148264621,1396,7,12,29022
1350663971,5804,155.2299957275390600,19.8586006164550780,36.6296005249023440,243.1416015625000000,109.0347976684570300,19.8548793792724600,30.3223991394042970,53,96,53,80,52,618,2147555501,2148055808,2148265170,2147789878,2147332854,2147660562,2148083830,2148258742,989,7,12,10683
1350664050,5804,151.3800048828125000,19.9974002838134770,36.6487007141113300,238.1905059814453000,104.5819015502929700,19.9911308288574220,30.4919891357421880,51,97,53,79,51,617,2147555346,2148043840,2148224484,2147787684,2147336347,2147645732,2148057636,2148258358,329,7,12,54254
1350664129,5804,147.7899932861328000,20.1338996887207030,36.6683006286621100,231.7248992919922000,100.0558013916015600,20.1296901702880860,30.7388496398925780,51,98,52,79,52,618,2147559085,2148048548,2148208539,2147787830,2147335286,2147646692,2148051529,2148257920,3249,7,12,64627
1350664222,5803,143.8800048828125000,20.1921997070312500,36.6722984313964840,224.9141998291015600,98.1905975341796900,20.1868095397949220,31.0469093322753900,52,99,53,79,52,623,2147589129,2148140790,2148416786,2147791241,2147347748,2147700781,2148154340,2148263771,2648,7,12,47954
1350664325,5804,139.9600067138672000,20.2912998199462900,36.6677017211914060,223.0726928710937500,95.3024063110351600,20.2752704620361330,31.1010608673095700,54,96,52,80,53,623,2147618075,2148230518,2148597595,2147790564,2147356306,2147747483,2148247149,2148269760,1623,7,13,7347
1350664452,5803,135.9600067138672000,20.4207992553710940,36.6782989501953100,227.1448974609375000,91.3069534301757800,20.3977108001709000,30.8464908599853500,54,98,54,79,54,624,2147661540,2148348187,2148842422,2147793654,2147377892,2147807186,2148372525,2148278701,1264,7,12,713
1350664564,5802,131.7899932861328000,20.5179996490478500,36.6902999877929700,219.5764007568359400,87.2614212036132800,20.5217304229736330,31.1723308563232420,54,99,53,78,53,630,2147707026,2148436717,2148982518,2147793371,2147390829,2147850907,2148433737,2148284470,1106,7,12,62729
1350664655,5804,127.6699981689453100,20.6777992248535160,36.7010002136230500,220.9387054443359400,82.4947967529296900,20.6679306030273440,31.0404300689697270,54,101,53,80,52,627,2147770294,2148576256,2149237037,2147795154,2147420644,2147926747,2148559744,2148291117,1144,7,12,26006
1350664746,5804,123.5800018310546900,20.8533000946044920,36.7164993286132800,222.2584991455078000,77.1433181762695300,20.8321800231933600,30.9037895202636720,57,102,52,80,53,629,2147871853,2148798747,2149640786,2147799250,2147452260,2148035364,2148754825,2148307648,785,7,12,23130
1350664839,5802,119.6800003051757800,20.9351005554199220,36.7032012939453100,224.4517974853515600,74.0755462646484400,20.9263896942138670,30.7543792724609380,59,103,53,79,52,626,2148076434,2149294610,2150579282,2147814793,2147545737,2148288740,2149205833,2148337920,341,7,12,61530
1350664942,5806,115.8700027465820300,21.0660991668701170,36.6955986022949200,229.0823974609375000,70.0801773071289000,21.0491294860839840,30.4760303497314450,60,103,54,80,52,627,2148125366,2149308617,2150506550,2147812708,2147559497,2148279414,2149141942,2148335661,3350,7,12,19879
1350665069,5805,112.3600006103515600,21.2444992065429700,36.7020988464355500,232.8074035644531200,65.2093200683593800,21.1988601684570300,30.2350807189941400,62,108,53,81,51,623,2148129334,2149205302,2150205449,2147812992,2147563483,2148217846,2148983085,2148325970,463,7,12,8808
1350665207,5803,108.0100021362304700,21.5436000823974600,36.7149009704589840,235.1952056884765600,54.0083084106445300,21.5435504913330080,29.9792499542236330,67,106,52,81,51,629,2148188946,2149194596,2150035273,2147816146,2147579657,2148181577,2148853504,2148322550,3097,7,13,25709
1350665322,5800,103.9899978637695300,21.7422008514404300,36.7156982421875000,240.2729949951172000,47.9546203613281250,21.7300796508789060,29.6686592102050780,76,108,53,82,52,629,2148411300,2149548873,2150557814,2147830582,2147657380,2148316041,2149058386,2148338797,1581,7,12,1051
1350665447,5803,99.7900009155273400,21.9111003875732420,36.7131004333496100,243.4073944091797000,41.8364105224609400,21.9187602996826170,29.4502906799316400,76,115,54,82,51,625,2148754532,2150091218,2151352347,2147849554,2147771401,2148514194,2149332150,2148364900,1436,7,13,31617
1350665502,5803,97.6800003051757800,22.0438995361328120,36.7070007324218750,244.8538970947265600,38.2115097045898440,22.0306301116943360,29.3402996063232420,78,115,53,81,52,620,2148944283,2150383561,2151748022,2147861485,2147837750,2148615350,2149470189,2148381686,1050,8,12,59389
1350665557,5804,95.8700027465820300,22.2446994781494140,36.7010993957519500,244.8260955810547000,32.0216102600097660,22.2218208312988280,29.2637596130371100,82,118,54,83,51,621,2149135277,2150659712,2152119872,2147873398,2147903195,2148700196,2149594331,2148391689,901,7,12,5056
1350665624,5802,94.1699981689453100,22.3637008666992200,36.7023010253906250,242.4871978759765600,28.0041007995605470,22.3460102081298830,29.3169403076171880,86,121,54,84,52,621,2149341220,2150944950,2152488932,2147886281,2147964388,2148779867,2149698112,2148404726,589,7,12,19257
1350665703,5804,92.3600006103515600,22.5475006103515620,36.7158012390136700,239.6018981933593800,22.3993701934814450,22.5193996429443360,29.3759498596191400,90,124,55,83,53,620,2149551945,2151232539,2152848886,2147897243,2148028132,2148858889,2149809389,2148419437,506,7,12,20506
1350665781,5803,89.9599990844726600,22.5844001770019530,36.7086982727050800,236.8784027099609400,20.2077903747558600,22.5872402191162100,29.4723396301269530,87,126,54,83,52,618,2149981037,2151831158,2153592128,2147924260,2148161517,2149043456,2150050349,2148443108,459,7,12,48791
1350665836,5805,87.5400009155273400,22.9195003509521500,36.7593002319335940,231.3442993164062500,10.3849201202392580,22.8916397094726560,29.6048393249511720,94,129,54,84,52,617,2150541494,2152604873,2154525833,2147953280,2148335433,2149277120,2150358619,2148480256,395,7,12,53335
1350665891,5803,85.2200012207031200,23.1697998046875000,36.7923011779785160,223.6511993408203000,4.2915968894958500,23.0807304382324220,29.8957290649414060,104,135,55,85,53,614,2151245778,2153587264,2155669257,2147986194,2148533257,2149548672,2150706934,2148521737,3516,7,12,56862
1350665946,5803,83.1299972534179700,23.2236003875732420,36.7877998352050800,218.5343017578125000,0.3604441881179810,23.2028408050537100,30.0986900329589840,107,138,54,85,51,612,2152105408,2154775085,2157002624,2148029732,2148766537,2149861037,2151119881,2148576603,179,8,12,62524
1350666001,5805,81.0699996948242200,23.3078994750976560,36.7755012512207000,217.6600036621093800,-2.4262371063232420,23.2894496917724600,30.1070308685302730,106,135,53,86,50,611,2153199259,2156257993,2158636928,2148088923,2149080640,2150273709,2151636534,2148635282,115,7,12,49296
1350666056,5805,79.1500015258789000,23.2719001770019530,36.7122993469238300,220.3650054931640600,-2.0136680603027344,23.2766208648681640,29.9769592285156250,113,135,54,87,51,614,2154452260,2157975542,2160514742,2148153545,2149432100,2150756836,2152248841,2148708662,45,8,12,36863
1350666134,5803,76.4199981689453100,23.2413997650146500,36.6325988769531250,235.3330993652343800,-0.9642987847328186,23.2439994812011720,29.2766304016113280,91,130,53,86,51,614,2156372845,2160482496,2163064329,2148259053,2150041106,2151543817,2153168173,2148822985,3517,8,12,31124
1350666189,5805,74.2099990844726600,23.3159008026123050,36.6152000427246100,244.4333953857422000,-3.4959650039672850,23.3227100372314450,28.8372001647949220,71,119,53,84,52,617,2158104978,2162583698,2165133366,2148366372,2150717376,2152405622,2154122797,2148939968,2805,8,12,56585
1350666244,5804,72.3700027465820300,23.5146007537841800,36.6080017089843750,247.8460998535156200,-8.6475133895874020,23.4829692840576170,28.6249904632568360,69,117,52,83,50,617,2159657737,2164367323,2166822528,2148454208,2151374454,2153250587,2154982400,2149037339,2074,8,12,60874
1350666299,5805,71.1900024414062500,23.6023006439209000,36.6026000976562500,248.3323059082031200,-11.5472002029418950,23.5732498168945300,28.5684108734130860,68,117,53,85,51,617,2160740160,2165546980,2167856795,2148513462,2151833728,2153828379,2155540708,2149100434,1784,8,12,7647
1350666437,5804,68.6399993896484400,23.9113006591796880,36.5834007263183600,248.6708068847656200,-21.2003097534179700,23.8741607666015620,28.4347591400146500,66,116,54,83,51,619,2163570276,2168606500,2170612726,2148691419,2153104521,2155409280,2157059876,2149277961,1476,7,12,50534
1350666492,5803,66.6800003051757800,23.9155006408691400,36.5861015319824200,248.6128997802734400,-22.4687004089355470,23.9137401580810550,28.4216499328613280,63,118,55,84,52,616,2165760548,2171019428,2172918290,2148848676,2154089965,2156634587,2158277769,2149425078,1122,7,12,54164
1350666547,5803,64.8499984741211000,24.0709991455078120,36.5853996276855500,247.9898986816406200,-27.9354591369628900,24.0844593048095700,28.3810596466064450,64,115,54,85,50,618,2168622738,2174233069,2176029531,2149058971,2155330614,2158154523,2159787401,2149606400,730,7,12,17283
1350666614,5805,63.3100013732910160,24.3423995971679700,36.5561981201171900,247.0520935058593800,-35.2325592041015600,24.3126392364501950,28.3314399719238280,64,117,54,84,51,617,2170184868,2175709302,2177175232,2149164150,2156038400,2158936521,2160442066,2149695177,98,8,12,29973
1350666812,5803,61.2700004577636700,24.6448993682861330,36.5264015197753900,248.6501007080078000,-45.9017105102539060,24.6469097137451170,28.1323204040527340,62,118,53,84,50,621,2175522377,2181161334,2182032960,2149530240,2158614610,2161837778,2163093952,2150018678,1193,8,12,1693
1350666903,5802,59.7299995422363300,24.8337993621826170,36.5107994079589840,250.3939971923828000,-50.3033485412597660,24.7850399017334000,28.0048408508300780,62,120,54,84,49,616,2181090176,2187796324,2189012836,2149987830,2161325257,2165256795,2166691209,2150457380,856,8,12,4621
1350667077,5804,56.6199989318847660,25.1951999664306640,36.4541015625000000,250.1853942871093800,-59.0839309692382800,25.0610008239746100,27.9065895080566400,60,123,53,85,50,615,2181499492,2186758756,2186971949,2150280320,2162343387,2165742509,2166402404,2150493769,1200,8,12,31226
1350667132,5804,55.1800003051757800,25.5464992523193360,36.4057006835937500,249.4604034423828000,-68.2487564086914000,25.3496303558349600,27.8253898620605470,60,119,54,85,50,614,2182283593,2187549915,2187603355,2150332800,2163005494,2166450432,2166942528,2150547145,416,9,11,103
1350667980,5803,53.5699996948242200,26.1422996520996100,36.2890014648437500,239.4636993408203000,-93.4438476562500000,26.1464290618896500,27.9475498199462900,55,110,54,86,50,612,2173664301,2177168457,2176883830,2149777042,2160056219,2162411492,2162393462,2150019181,741,8,12,9287
1350668061,5805,51.6899986267089840,26.1427993774414060,36.2886009216308600,239.4149017333984400,-93.4132614135742200,26.1454601287841800,27.9499893188476560,55,111,53,83,50,611,2174507081,2177979456,2177735277,2149963803,2161913792,2164114075,2163561417,2150151634,706,8,11,13506
1350668130,5804,49.8100013732910160,26.1420993804931640,36.2883987426757800,239.5765991210937500,-93.4028396606445300,26.1451301574707030,27.9429893493652340,55,113,52,83,50,616,2175778130,2179239853,2179047990,2150257426,2164251721,2166259520,2165018212,2150336777,561,8,11,39393
1350668199,5806,47.5299987792968750,26.1410999298095700,36.2871017456054700,239.5657043457031200,-93.3850402832031200,26.1445598602294920,27.9436302185058600,54,111,53,84,50,617,2177236443,2180603410,2180518080,2150697627,2166816539,2168587419,2166657984,2150580352,365,8,11,10601
1350668280,5805,44.4199981689453100,26.1387004852294920,36.2851982116699200,239.6932983398437500,-93.2701568603515600,26.1409206390380860,27.9396095275878900,55,111,52,84,49,615,2179797696,2183134902,2183195072,2151406491,2171049115,2172518281,2169504932,2150973302,232,8,11,49603
1350668313,5805,42.6399993896484400,26.1366996765136720,36.2840003967285160,239.6544952392578000,-93.2209930419921900,26.1393604278564450,27.9418907165527340,54,111,52,83,51,617,2181555300,2184879561,2185065965,2151928429,2173685997,2174984182,2171323684,2151244352,247,8,12,54283
1350668346,5804,40.7400016784668000,26.1336994171142580,36.2816009521484400,239.6961059570312500,-93.1115264892578100,26.1358890533447270,27.9413795471191400,54,112,55,83,50,614,2183422482,2186723364,2187019748,2152526509,2176397513,2177488164,2173161526,2151537718,233,8,11,9244
1350668379,5804,38.8300018310546900,26.1287994384765620,36.2783012390136700,239.7881011962890600,-93.0212478637695300,26.1330204010009770,27.9384803771972660,54,110,53,84,50,619,2185522166,2188781138,2189242742,2153288073,2179292662,2180148928,2175133833,2151879853,230,8,11,8249
1350668412,5804,36.8800010681152340,26.1291007995605470,36.2784996032714840,239.7095947265625000,-93.0107269287109400,26.1326904296875000,27.9419307708740230,54,110,54,82,50,613,2187319698,2190511305,2191121910,2154026916,2182133897,2182749988,2177064292,2152218971,349,8,12,4493
1350668445,5803,34.8899993896484400,26.1275997161865230,36.2765007019043000,239.8531036376953000,-92.9733581542968800,26.1315002441406250,27.9362506866455080,54,112,54,84,50,615,2189803520,2192992758,2193790838,2155142729,2185409252,2185796800,2179375872,2152687899,407,8,12,18091